Regional Weather Roundup
Issued by NWS

Home | Current Version | Previous Version | Graphics & Text | Print | Product List | Glossary On
Versions: 1 2 3 4 5 6 7 8 9 10 11 12 13 14 15 16 17 18 19 20 21 22 23 24 25 26 27 28
000
ASUS45 KCYS 160210
RWRWY

WYOMING REGIONAL WEATHER ROUNDUP
NATIONAL WEATHER SERVICE CHEYENNE WY
800 PM MDT TUE APR 15 2014

NOTE:  "FAIR" INDICATES FEW OR NO CLOUDS BELOW 12,000 FEET
WITH NO SIGNIFICANT WEATHER AND/OR OBSTRUCTIONS TO VISIBILITY.

WYZ001-160300-
YELLOWSTONE NATIONAL PARK

CITY           SKY/WX    TMP DP  RH WIND       PRES   REMARKS
LK YELLOWSTONE   N/A     27  23  85 VRB7      29.81R WCI  19
W YELLOWSTONE  NOT AVBL

$$
WYZ002>013-054>058-071-098>099-160300-
NORTHERN WYOMING

CITY           SKY/WX    TMP DP  RH WIND       PRES   REMARKS
JACKSON        CLOUDY    34  34 100 CALM      29.78R
CODY           CLOUDY    37  32  81 N12       29.71R WCI  30
GREYBULL       LGT RAIN  42  37  82 NW20G31   29.69R
WORLAND        CLOUDY    44  33  65 N29G47    29.65R
SHERIDAN       LGT RAIN  39  35  86 NW29G37   29.68R WCI  27
BUFFALO        CLOUDY    40  33  76 N25G37    29.65R WCI  29
GILLETTE       LGT RAIN  45  35  68 NW8G23    29.60R
HULETT         LGT RAIN  45  34  65 N9        29.62
NEWCASTLE      FAIR      52  25  35 N9        29.56

$$
WYZ014>020-022>026-101>103-160300-
CENTRAL WYOMING

CITY           SKY/WX    TMP DP  RH WIND       PRES   REMARKS
BIG PINEY      MOCLDY    41   8  25 W29G38    29.78S
PINEDALE       MOCLDY    36  28  75 NW29G37   29.79R WCI  23
DUBOIS         CLOUDY    32  25  74 W25G33    29.71F WCI  19
LANDER         MOCLDY    46  25  43 NE8       29.62F
RIVERTON       PTCLDY    47  22  37 W12       29.63R
CASPER         CLOUDY    48  23  37 W14       29.60R
DOUGLAS        CLOUDY    53  26  35 SW18G25   29.57F

$$
WYZ021-027>030-104>119-160300-
SOUTHERN WYOMING

CITY           SKY/WX    TMP DP  RH WIND       PRES   REMARKS
EVANSTON       CLOUDY    43  26  51 NW16      29.87R
KEMMERER       CLOUDY    34  32  93 W23G30    29.82F WCI  22
FORT BRIDGER   CLOUDY    43  28  57 NW25G32   29.87S
ROCK SPRINGS   CLOUDY    43  24  47 W21G35    29.80R
DIXON          CLOUDY    51  17  26 W10G18    29.79S
RAWLINS        CLOUDY    48  17  29 W28G36    29.71S
SARATOGA       CLOUDY    46  21  36 SW30G38   29.75F
LARAMIE        MOCLDY    43  21  41 W13G24    29.73F
CHEYENNE       CLOUDY    49  19  30 SW6       29.71F
TORRINGTON     CLOUDY    53  32  44 SW9       29.58F
PINE BLUFFS    FAIR      50  23  34 SW13      29.68F

$$



USA.gov is the U.S. government's official web portal to all federal, state and local government web resources and services.